User: anonymous   Login
Location: Pine Mountain Observatory
(43.7910°N, 120.9377°W)
Time: 16:37:56
(UTC-07:00)
Language:

Cosmos 1076 Rocket - Orbit

View from above orbital plane
View from above orbital plane
View from above satellite
View from above satellite

Ground track
Ground track

The orbit data is extracted from the following two-line orbital elements,

1 11267U 79011B   15147.19203620  .00000209  00000-0  19767-4 0  9991
2 11267 082.5265 219.2989 0016335 205.2650 154.7771 14.88566118963586
Epoch (UTC): 27 May 2015 04:36:31
Eccentricity: 0.0016335
inclination: 82.5265°
perigee height: 591 km
apogee height: 614 km
right ascension of ascending node: 219.2989°
argument of perigee: 205.2650°
revolutions per day: 14.88566118
mean anomaly at epoch: 154.7771°
orbit number at epoch: 96358

The dashed part of the orbit path shows where the satellite is in the earth's shadow,  

DLR